Tracking 27420 objects as of 29-May-2023
HD Live streaming from Space Station
objects crossing your sky now

STARLINK-1169

Track STARLINK-1169 now!
10-day predictions
STARLINK-1169 is classified as:


NORAD ID: 45061
Int'l Code: 2020-006T
Perigee: 553.6 km
Apogee: 555.1 km
Inclination: 53.1 °
Period: 95.6 minutes
Semi major axis: 6925 km
RCS: Unknown
Launch date: January 29, 2020
Source: United States (US)
Launch site: AIR FORCE EASTERN TEST RANGE (AFETR)
Your satellite tracking list
Your tracking list is empty




NASA's NSSDC Master Catalog

Two Line Element Set (TLE):
1 45061U 20006T   23148.26480976  .00000961  00000-0  83382-4 0  9998
2 45061  53.0537 169.5274 0001043  90.6309 269.4799 15.06398041183263
Source of the keplerian elements: AFSPC